THOR ABLESTAR DEB, 128

Orbit data source: Space-Track

THOR ABLESTAR DEB, 128 is space debris in LEO originally from a launch on Thu, 29 Jun 1961 UTC launched from the Air Force Eastern Test Range (AFETR). Debris objects in space refer to the collection of defunct objects orbiting the Earth. Examples of debris include non-operational satellites, rocket bodies, and fragments generated from explosions, collisions, or faulty payload assembly.

Loading next visibility...
THOR ABLESTAR DEB details
Identifier
128, 1961-015N
Orbit
LEO
Last TLE update13 hours ago
Origin
Flag of USUSAF SSD (US)
ManufacturerUnknown
MissionSpacecraft
Bus & MotorUnknown
MassUnknown
Launch date (UTC)
1961-06-29 (64 years ago)
Launch vehicleUnknown
Launch site
Air Force Eastern Test Range (AFETR)
Object type
Payload
Rocket body
Debris
Shape & HBRUnknown
Radar Cross SectionMedium (>0.1 m² and <1 m²)

Expand to show TLE details & history

TLE from 13 hours ago
0 THOR ABLESTAR DEB
1 00128U 61015N   25024.38529440  .00000526  00000-0  38139-3 0  9992
2 00128  66.6760  12.1332 0099674 305.2584  53.9203 14.01819471243757
Epoch: 2025-01-24T09:14Z
Definitive object data (Epoch: 2025-01-24T09:14:49.436Z)
Latitude
Longitude109.478°
Altitude847.402 km
Speed7.451 km/s
True Right ascension00h 48m 31s
True Declination0° 00' 00"
Sunlit
Object was in daylight at TLE epoch
Visualization TLE readout
Latitude-51.18263°
Longitude75.86559°
Altitude834.157 km
Speed7.472 km/s
Apparent Right ascension16h 28m 14s
Apparent Declination-79° 42' 43"
Sunlit
Object is in daylight
Visualization observer readout
Local Sidereal Time23:58:00
Azimuth193.072° SSW
Elevation-43.129°
Doppler factor1
Orbital elements
Apogee altitude958.304 km
Perigee altitude813.497 km
Semi-major axis7,264.037 km
Eccentricity0.0099674
Inclination66.676°
RAAN12.1332°
Arg. of periapsis305.2584°
True anomaly54.85019°
Mean anomaly53.9203°
Eccentric anomaly54.38456°
Mean motion3.50571 °/min
BSTAR0.00038139
Orbital period102.69 mins
Loading maneuver chart data...

THOR ABLESTAR DEB Visibility forecast

Observer location: undefined°, undefined

Span
Click to sort rows by Start time (UTC) header in descending order
Start Az.
Max El. time (UTC)
Max El. Az.
Max El.
End time (UTC)
End Az.
4 mins2025-01-24 23:05:29.094Z122.165° SE2025-01-24 23:07:29.094Z100.82° ESE13.063°2025-01-24 23:09:29.094Z79.941° E
10 mins2025-01-25 00:47:29.094Z210.269° SW2025-01-25 00:52:29.094Z3.715° NNE44.458°2025-01-25 00:57:29.094Z28.02° NE
6 mins2025-01-25 02:36:29.094Z294.344° NW2025-01-25 02:38:29.094Z317.363° NNW16.535°2025-01-25 02:42:29.094Z359.139° N
7 mins2025-01-25 08:02:29.094Z7.659° NNE2025-01-25 08:05:29.094Z40.243° NE17.649°2025-01-25 08:09:29.094Z81.794° E
10 mins2025-01-25 09:47:29.094Z332.007° NNW2025-01-25 09:52:29.094Z133.926° SE44.557°2025-01-25 09:57:29.094Z150.939° SSE
4 mins2025-01-25 11:35:29.094Z272.59° WNW2025-01-25 11:36:29.094Z262.199° W13.917°2025-01-25 11:39:29.094Z231.847° WSW
|